Location: Newark
(46.0000°N, 5.0167°E)
Time: 16:59:42
(UTC+00:00)

Envisat - Visible Passes

Search period start: 22 September 2019 00:00
Search period end: 02 October 2019 00:00
Orbit: 764 x 766 km, 98.1° (Epoch: 22 September)

Date Brightness Start Highest point End Pass type
(mag) Time Alt. Az. Time Alt. Az. Time Alt. Az.
22 Sep 4.0 18:10:44 10° S 18:15:40 52° W 18:20:39 10° NNW visible
23 Sep 6.0 19:15:40 10° WSW 19:18:28 15° W 19:21:17 10° NW visible
24 Sep 5.1 18:36:51 10° SSW 18:41:20 31° W 18:45:49 10° NNW visible
25 Sep 3.6 17:59:21 10° S 18:04:23 65° WSW 18:09:27 10° NNW visible
26 Sep 5.9 19:03:35 10° SW 19:07:05 18° W 19:10:34 10° NW visible
27 Sep 4.6 18:25:17 10° SSW 18:29:59 38° W 18:34:44 10° NNW visible
28 Sep 3.2 17:48:02 10° S 17:53:06 81° WSW 17:58:13 10° NNW visible
28 Sep 6.4 19:32:06 10° W 19:32:56 10° W 19:33:46 10° WNW visible
29 Sep 5.5 18:51:43 10° SW 18:55:42 23° W 18:59:42 10° NW visible
30 Sep 4.2 18:13:47 10° S 18:18:41 47° W 18:23:36 10° NNW visible
01 Oct 6.1 19:19:05 10° WSW 19:21:31 13° W 19:23:58 10° WNW visible
